AA9VI-10 Weather Reports


Display with metric or nautical units.
time (UTC)temp
F
wind
direction
speed
MPH
gust
MPH
rain 1hr
in
rain 24hr
in
rain mn
in
humidity
%
barometer
mb
20260510233516 63 0 1.0 2.0 0.00 0.00 0.00 26 1018.5
20260510232517 64 315 1.0 2.0 0.00 0.00 0.00 26 1018.6
20260510231516 64 248 2.0 5.0 0.00 0.00 0.00 25 1018.6
20260510230516 65 315 1.0 3.0 0.00 0.00 0.00 24 1018.8
20260510225516 65 315 1.0 4.0 0.00 0.00 0.00 24 1018.8
20260510224516 65 293 2.0 5.0 0.00 0.00 0.00 23 1018.8
20260510223516 65 338 2.0 5.0 0.00 0.00 0.00 24 1018.8
20260510222516 66 315 1.0 4.0 0.00 0.00 0.00 23 1018.8
20260510221516 65 338 1.0 3.0 0.00 0.00 0.00 26 1018.8
20260510220516 66 315 1.0 3.0 0.00 0.00 0.00 24 1018.7
20260510215516 65 225 1.0 3.0 0.00 0.00 0.00 27 1018.5
20260510214516 64 248 1.0 5.0 0.00 0.00 0.00 26 1018.5
20260510213516 64 315 3.0 9.0 0.00 0.00 0.00 25 1018.4
20260510212516 63 315 1.0 3.0 0.00 0.00 0.00 27 1018.3
20260510211516 64 338 2.0 5.0 0.00 0.00 0.00 24 1018.4
20260510210516 65 293 2.0 4.0 0.00 0.00 0.00 26 1018.4
20260510205516 65 180 1.0 3.0 0.00 0.00 0.00 24 1018.5
20260510204516 64 0 2.0 7.0 0.00 0.00 0.00 30 1018.6
20260510203516 64 315 1.0 4.0 0.00 0.00 0.00 27 1018.8
20260510202516 63 338 1.0 4.0 0.00 0.00 0.00 27 1019.0
20260510201516 64 338 2.0 8.0 0.00 0.00 0.00 24 1018.9
20260510200517 63 338 1.0 6.0 0.00 0.00 0.00 28 1018.9
20260510195516 64 338 2.0 5.0 0.00 0.00 0.00 25 1018.9
20260510194516 65 270 1.0 4.0 0.00 0.00 0.00 30 1018.9
20260510193516 64 225 2.0 7.0 0.00 0.00 0.00 32 1019.1
20260510192516 63 248 1.0 3.0 0.00 0.00 0.00 30 1018.9
20260510191516 63 270 2.0 8.0 0.00 0.00 0.00 27 1019.0
20260510190516 62 225 1.0 2.0 0.00 0.00 0.00 35 1018.9
20260510185516 62 0 1.0 5.0 0.00 0.00 0.00 27 1019.0
20260510184516 63 293 2.0 7.0 0.00 0.00 0.00 34 1019.1
20260510183516 63 270 2.0 4.0 0.00 0.00 0.00 29 1019.0
20260510182516 61 315 1.0 3.0 0.00 0.00 0.00 27 1018.9
20260510181516 62 338 2.0 7.0 0.00 0.00 0.00 29 1018.9
20260510180516 63 225 2.0 3.0 0.00 0.00 0.00 29 1019.0
20260510175516 63 0 1.0 5.0 0.00 0.00 0.00 27 1019.0
20260510174516 63 270 2.0 8.0 0.00 0.00 0.00 26 1019.1
20260510173516 62 338 2.0 8.0 0.00 0.00 0.00 30 1019.3
20260510172516 62 338 1.0 3.0 0.00 0.00 0.00 29 1019.2
20260510171516 61 293 1.0 4.0 0.00 0.00 0.00 30 1019.2
20260510170516 61 315 1.0 3.0 0.00 0.00 0.00 29 1019.2
20260510165516 59 0 2.0 6.0 0.00 0.00 0.00 31 1019.2
20260510164516 58 0 1.0 5.0 0.00 0.00 0.00 30 1019.0
20260510163517 58 0 1.0 3.0 0.00 0.00 0.00 33 1018.9
20260510162516 58 0 1.0 2.0 0.00 0.00 0.00 38 1018.9
20260510161516 58 0 1.0 3.0 0.00 0.00 0.00 34 1018.9
20260510160516 58 0 1.0 3.0 0.00 0.00 0.00 36 1018.9
20260510155517 58 0 1.0 3.0 0.00 0.00 0.00 36 1018.9
20260510154516 57 68 1.0 4.0 0.00 0.00 0.00 34 1018.9
20260510153516 57 338 1.0 3.0 0.00 0.00 0.00 36 1018.9
20260510152516 56 0.0 3.0 0.00 0.00 0.00 35 1018.8
20260510151516 56 203 1.0 6.0 0.00 0.00 0.00 34 1018.6
20260510150516 55 203 2.0 4.0 0.00 0.00 0.00 36 1018.6
20260510145516 55 158 2.0 4.0 0.00 0.00 0.00 38 1018.5
20260510144516 54 225 1.0 5.0 0.00 0.00 0.00 36 1018.5
20260510143516 54 135 1.0 5.0 0.00 0.00 0.00 39 1018.6
20260510142516 53 135 1.0 4.0 0.00 0.00 0.00 37 1018.6
20260510141516 53 68 1.0 3.0 0.00 0.00 0.00 36 1018.5
20260510140516 53 90 1.0 3.0 0.00 0.00 0.00 36 1018.7
20260510135516 53 0.0 3.0 0.00 0.00 0.00 42 1018.4
20260510134516 52 45 1.0 3.0 0.00 0.00 0.00 39 1018.3
20260510133516 52 113 1.0 3.0 0.00 0.00 0.00 41 1018.4
20260510132516 51 113 2.0 3.0 0.00 0.00 0.00 41 1018.1
20260510131516 51 68 1.0 4.0 0.00 0.00 0.00 40 1018.1
20260510130516 50 68 1.0 3.0 0.00 0.00 0.00 46 1018.2
20260510125516 49 68 1.0 3.0 0.00 0.00 0.00 50 1018.0
20260510124516 48 0.0 2.0 0.00 0.00 0.00 54 1017.7
20260510123516 47 0.0 2.0 0.00 0.00 0.00 59 1017.7
20260510122516 45 0.0 2.0 0.00 0.00 0.00 63 1017.5
20260510121516 44 0.0 1.0 0.00 0.00 0.00 71 1017.2
20260510120516 43 0.0 0.0 0.00 0.00 0.00 72 1017.1
20260510115516 42 0.0 0.0 0.00 0.00 0.00 74 1017.1
20260510114516 41 0.0 0.0 0.00 0.00 0.00 76 1016.8
20260510113516 39 0.0 0.0 0.00 0.00 0.00 77 1016.7
20260510112516 39 0.0 0.0 0.00 0.00 0.00 77 1016.6
20260510111516 38 0.0 0.0 0.00 0.00 0.00 77 1016.7
20260510110516 38 0.0 0.0 0.00 0.00 0.00 77 1016.4
20260510105516 39 0.0 0.0 0.00 0.00 0.00 77 1016.3
20260510104516 39 0.0 0.0 0.00 0.00 0.00 77 1016.1
20260510103516 39 0.0 0.0 0.00 0.00 0.00 76 1016.1
20260510102516 39 0.0 0.0 0.00 0.00 0.00 76 1016.1
20260510101516 39 0.0 0.0 0.00 0.00 0.00 76 1015.8
20260510100516 39 0.0 0.0 0.00 0.00 0.00 76 1015.7
20260510095516 39 0.0 0.0 0.00 0.00 0.00 75 1015.5
20260510094516 40 0.0 0.0 0.00 0.00 0.00 76 1015.5
20260510093516 39 0.0 0.0 0.00 0.00 0.00 75 1015.4
20260510092516 39 0.0 1.0 0.00 0.00 0.00 75 1015.5
20260510091516 40 0.0 0.0 0.00 0.00 0.00 75 1015.6
20260510090516 40 0.0 0.0 0.00 0.00 0.00 74 1015.5
20260510085516 41 0.0 0.0 0.00 0.00 0.00 73 1015.4
20260510084516 41 0.0 0.0 0.00 0.00 0.00 72 1015.3
20260510083516 42 0.0 0.0 0.00 0.00 0.00 70 1015.1
20260510082516 42 0.0 0.0 0.00 0.00 0.00 69 1015.0
20260510081516 43 0.0 0.0 0.00 0.00 0.00 68 1014.9
20260510080516 44 0.0 0.0 0.00 0.00 0.00 66 1014.7
20260510075516 44 0.0 0.0 0.00 0.00 0.00 65 1014.5
20260510074516 45 0.0 0.0 0.00 0.00 0.00 63 1014.4
20260510073516 45 0.0 1.0 0.00 0.00 0.00 62 1014.3
20260510072517 45 0.0 1.0 0.00 0.00 0.00 62 1014.2
20260510071516 46 0.0 2.0 0.00 0.00 0.00 61 1014.0
20260510070516 46 68 1.0 3.0 0.00 0.00 0.00 61 1014.0
20260510065516 47 0.0 1.0 0.00 0.00 0.00 61 1013.9
20260510064516 47 68 1.0 3.0 0.00 0.00 0.00 61 1013.8
20260510063516 47 68 2.0 4.0 0.00 0.00 0.00 62 1013.7
20260510062516 47 45 1.0 2.0 0.00 0.00 0.00 64 1013.6
20260510061516 47 0.0 2.0 0.00 0.00 0.00 65 1013.6
20260510060516 46 0.0 0.0 0.00 0.00 0.00 68 1013.3
20260510055516 45 45 1.0 3.0 0.00 0.00 0.00 72 1013.0
20260510054516 45 0.0 2.0 0.00 0.00 0.00 73 1012.6
20260510053516 45 0.0 1.0 0.00 0.00 0.00 73 1012.2
20260510052516 45 0.0 0.0 0.00 0.00 0.00 72 1012.1
20260510051516 45 0.0 0.0 0.00 0.00 0.00 72 1011.9
20260510050516 46 0.0 0.0 0.00 0.00 0.00 71 1011.9
20260510045517 46 0.0 0.0 0.00 0.00 0.00 71 1011.8
20260510044517 46 0.0 0.0 0.00 0.00 0.00 70 1011.7
20260510043517 47 0.0 0.0 0.00 0.00 0.00 68 1011.5
20260510042516 47 0.0 0.0 0.00 0.00 0.00 67 1011.3
20260510041516 47 0.0 0.0 0.00 0.00 0.00 67 1011.2
20260510035517 48 0.0 0.0 0.00 0.00 0.00 64 1010.9
20260510034517 49 0.0 0.0 0.00 0.00 0.00 64 1010.8
20260510033516 49 0.0 0.0 0.00 0.00 0.00 62 1010.6
20260510032517 50 0.0 1.0 0.00 0.00 0.00 62 1010.5
20260510031517 50 0.0 1.0 0.00 0.00 0.00 60 1010.4
20260510030517 51 0.0 0.0 0.00 0.00 0.00 58 1010.3
20260510025517 52 0.0 0.0 0.00 0.00 0.00 56 1010.2
20260510024516 52 0.0 0.0 0.00 0.00 0.00 55 1010.0
20260510023517 53 0.0 0.0 0.00 0.00 0.00 54 1009.8
20260510022517 54 0.0 0.0 0.00 0.00 0.00 52 1009.5
20260510021516 54 0.0 0.0 0.00 0.00 0.00 51 1009.3
20260510020517 55 0.0 0.0 0.00 0.00 0.00 50 1009.2
20260510015516 56 0.0 1.0 0.00 0.00 0.00 49 1009.0
20260510014517 57 0 1.0 2.0 0.00 0.00 0.00 47 1008.7
20260510014017 58 0.0 2.0 0.00 0.00 0.00 47 1008.5
20260510013017 59 0 1.0 1.0 0.00 0.00 0.00 45 1008.3
20260510012017 60 68 1.0 2.0 0.00 0.00 0.00 43 1008.0
20260510011017 63 0 2.0 4.0 0.00 0.00 0.00 40 1007.9
20260510010016 64 0.0 2.0 0.00 0.00 0.00 40 1007.6
20260510005016 64 0 1.0 2.0 0.00 0.00 0.00 39 1007.3
20260510004017 65 338 2.0 7.0 0.00 0.00 0.00 38 1007.1
20260510003016 66 0 1.0 3.0 0.00 0.00 0.00 38 1006.9
20260510002016 66 338 1.0 2.0 0.00 0.00 0.00 37 1006.7
20260510001017 67 0 1.0 4.0 0.00 0.00 0.00 37 1006.4
20260510000017 68 0 2.0 5.0 0.00 0.00 0.00 35 1006.3
20260509235017 68 315 2.0 6.0 0.00 0.00 0.00 32 1006.1
20260509234017 69 338 2.0 5.0 0.00 0.00 0.00 30 1005.9